User: anonymous   Login
Location: Mentone
(34.5413°N, 85.5351°W)
Time: 18:23:29
(UTC-05:00)
Language:

Centaur AC-72 - Orbit

View from above orbital plane
View from above orbital plane
View from above satellite
View from above satellite

Ground track
Ground track

The orbit data is extracted from the following two-line orbital elements,

1 21907U 92013B   17229.14740314  .00000016  00000-0  00000+0 0  9995
2 21907  19.2018 250.5719 6955009 186.3525 212.1299  2.25610913209652
Epoch (UTC): 17 August 2017 03:32:15
Eccentricity: 0.6955009
inclination: 19.2018°
perigee height: 1099 km
apogee height: 35256 km
right ascension of ascending node: 250.5719°
argument of perigee: 186.3525°
revolutions per day: 2.25610913
mean anomaly at epoch: 212.1299°
orbit number at epoch: 20965

The dashed part of the orbit path shows where the satellite is in the earth's shadow,  

DLR